Time,TemperatureF,DewpointF,PressureIn,WindDirection,WindDirectionDegrees,WindSpeedMPH,WindSpeedGustMPH,Humidity,HourlyPrecipIn,Conditions,Clouds,dailyrainin,SoftwareType,DateUTC
2013-05-07 00:03:00,61.0,56.0,29.87,SSW,205,3.0,8.0,84,0.00,,,0.13,,2013-05-07 04:03:00,
2013-05-07 00:12:00,61.0,56.0,29.87,SSW,205,3.0,8.0,84,0.00,,,0.13,,2013-05-07 04:12:00,
2013-05-07 00:23:00,61.0,56.0,29.87,SW,228,3.0,8.0,84,0.00,,,0.13,,2013-05-07 04:23:00,
2013-05-07 00:33:00,61.0,56.0,29.88,WSW,258,3.0,8.0,84,0.00,,,0.13,,2013-05-07 04:33:00,
2013-05-07 00:42:00,61.0,56.0,29.88,WSW,258,3.0,8.0,84,0.00,,,0.13,,2013-05-07 04:42:00,
2013-05-07 00:53:00,61.0,55.0,29.88,WSW,248,4.0,8.0,81,0.00,,,0.13,,2013-05-07 04:53:00,
2013-05-07 01:02:00,61.0,55.0,29.88,WSW,257,3.0,8.0,80,0.00,,,0.13,,2013-05-07 05:02:00,
2013-05-07 01:12:00,61.0,55.0,29.88,WSW,257,3.0,8.0,80,0.00,,,0.13,,2013-05-07 05:12:00,
2013-05-07 01:22:00,61.0,54.0,29.88,SW,233,4.0,9.0,79,0.00,,,0.13,,2013-05-07 05:22:00,
2013-05-07 01:32:00,60.0,54.0,29.88,West,270,5.0,9.0,80,0.00,,,0.13,,2013-05-07 05:32:00,
2013-05-07 01:42:00,60.0,54.0,29.88,West,270,5.0,9.0,80,0.00,,,0.13,,2013-05-07 05:42:00,
2013-05-07 01:52:00,60.0,54.0,29.88,NNW,343,3.0,10.0,80,0.00,,,0.13,,2013-05-07 05:52:00,
2013-05-07 02:02:00,59.0,53.0,29.88,WNW,286,2.0,7.0,80,0.00,,,0.13,,2013-05-07 06:02:00,
2013-05-07 02:12:00,59.0,53.0,29.88,WNW,286,2.0,7.0,80,0.00,,,0.13,,2013-05-07 06:12:00,
2013-05-07 02:22:00,59.0,53.0,29.87,West,266,3.0,8.0,81,0.00,,,0.13,,2013-05-07 06:22:00,
2013-05-07 02:32:00,58.0,53.0,29.87,WNW,282,2.0,8.0,82,0.00,,,0.12,,2013-05-07 06:32:00,
2013-05-07 02:42:00,58.0,53.0,29.87,WNW,282,2.0,8.0,82,0.00,,,0.12,,2013-05-07 06:42:00,
2013-05-07 02:52:00,58.0,53.0,29.87,WSW,252,2.0,8.0,82,0.00,,,0.12,,2013-05-07 06:52:00,
2013-05-07 03:02:00,58.0,53.0,29.87,WNW,286,3.0,8.0,83,0.00,,,0.12,,2013-05-07 07:02:00,
2013-05-07 03:11:00,58.0,53.0,29.87,WNW,286,3.0,8.0,83,0.00,,,0.12,,2013-05-07 07:11:00,
2013-05-07 03:22:00,58.0,53.0,29.87,West,268,3.0,9.0,83,0.00,,,0.12,,2013-05-07 07:22:00,
2013-05-07 03:32:00,58.0,53.0,29.87,WNW,290,2.0,6.0,83,0.00,,,0.12,,2013-05-07 07:32:00,
2013-05-07 03:42:00,58.0,53.0,29.87,WNW,290,2.0,6.0,83,0.00,,,0.12,,2013-05-07 07:42:00,
2013-05-07 03:52:00,58.0,53.0,29.87,West,277,2.0,8.0,83,0.00,,,0.12,,2013-05-07 07:52:00,
2013-05-07 04:02:00,57.0,52.0,29.87,West,261,3.0,6.0,83,0.00,,,0.12,,2013-05-07 08:02:00,
2013-05-07 04:11:00,57.0,52.0,29.87,West,261,3.0,6.0,83,0.00,,,0.12,,2013-05-07 08:11:00,
2013-05-07 04:21:00,57.0,52.0,29.87,West,269,1.0,5.0,84,0.00,,,0.12,,2013-05-07 08:21:00,
2013-05-07 04:32:00,57.0,52.0,29.87,West,269,1.0,5.0,84,0.00,,,0.12,,2013-05-07 08:32:00,
2013-05-07 04:42:00,57.0,52.0,29.87,West,269,1.0,5.0,84,0.00,,,0.12,,2013-05-07 08:42:00,
2013-05-07 04:52:00,57.0,53.0,29.87,West,279,2.0,5.0,85,0.00,,,0.12,,2013-05-07 08:52:00,
2013-05-07 05:01:00,56.0,52.0,29.87,West,279,1.0,5.0,86,0.00,,,0.12,,2013-05-07 09:01:00,
2013-05-07 05:11:00,56.0,52.0,29.87,West,279,1.0,5.0,86,0.00,,,0.12,,2013-05-07 09:11:00,
2013-05-07 05:22:00,56.0,52.0,29.86,WNW,284,0.0,4.0,86,0.00,,,0.12,,2013-05-07 09:22:00,
2013-05-07 05:33:00,56.0,52.0,29.85,WNW,291,1.0,4.0,87,0.00,,,0.07,,2013-05-07 09:33:00,
2013-05-07 05:42:00,56.0,52.0,29.85,WNW,291,1.0,4.0,87,0.00,,,0.07,,2013-05-07 09:42:00,
2013-05-07 05:52:00,55.0,52.0,29.86,West,269,1.0,4.0,88,0.00,,,0.07,,2013-05-07 09:52:00,
2013-05-07 06:03:00,56.0,52.0,29.86,West,279,2.0,6.0,88,0.00,,,0.07,,2013-05-07 10:03:00,
2013-05-07 06:12:00,56.0,52.0,29.86,West,279,2.0,6.0,88,0.00,,,0.07,,2013-05-07 10:12:00,
2013-05-07 06:23:00,56.0,52.0,29.86,West,275,1.0,6.0,87,0.00,,,0.07,,2013-05-07 10:23:00,
2013-05-07 06:32:00,56.0,52.0,29.87,West,270,1.0,3.0,87,0.00,,,0.01,,2013-05-07 10:32:00,
2013-05-07 06:42:00,56.0,52.0,29.88,WNW,287,0.0,4.0,87,0.00,,,0.01,,2013-05-07 10:42:00,
2013-05-07 06:52:00,56.0,52.0,29.88,WNW,287,0.0,4.0,87,0.00,,,0.01,,2013-05-07 10:52:00,
2013-05-07 07:02:00,56.0,52.0,29.88,WNW,286,1.0,4.0,87,0.00,,,0.01,,2013-05-07 11:02:00,
2013-05-07 07:12:00,56.0,52.0,29.88,WNW,286,1.0,4.0,87,0.00,,,0.01,,2013-05-07 11:12:00,
2013-05-07 07:22:00,56.0,52.0,29.89,West,276,1.0,4.0,87,0.00,,,0.01,,2013-05-07 11:22:00,
2013-05-07 07:32:00,56.0,52.0,29.89,West,279,1.0,3.0,87,0.00,,,0.01,,2013-05-07 11:32:00,
2013-05-07 07:42:00,56.0,52.0,29.89,West,279,1.0,3.0,87,0.00,,,0.01,,2013-05-07 11:42:00,
2013-05-07 07:52:00,57.0,53.0,29.89,West,280,0.0,3.0,87,0.00,,,0.01,,2013-05-07 11:52:00,
2013-05-07 08:02:00,57.0,53.0,29.90,SW,223,1.0,4.0,86,0.00,,,0.01,,2013-05-07 12:02:00,
2013-05-07 08:11:00,57.0,53.0,29.90,SW,223,1.0,4.0,86,0.00,,,0.01,,2013-05-07 12:11:00,
2013-05-07 08:21:00,58.0,53.0,29.91,WNW,286,1.0,5.0,84,0.00,,,0.01,,2013-05-07 12:21:00,
2013-05-07 08:32:00,59.0,53.0,29.91,West,263,1.0,4.0,81,0.00,,,0.00,,2013-05-07 12:32:00,
2013-05-07 08:42:00,59.0,53.0,29.91,West,263,1.0,4.0,81,0.00,,,0.00,,2013-05-07 12:42:00,
2013-05-07 08:52:00,60.0,53.0,29.91,West,265,1.0,3.0,79,0.00,,,0.00,,2013-05-07 12:52:00,
2013-05-07 09:02:00,61.0,54.0,29.92,WNW,282,1.0,4.0,77,0.00,,,0.00,,2013-05-07 13:02:00,
2013-05-07 09:11:00,61.0,54.0,29.92,WNW,282,1.0,4.0,77,0.00,,,0.00,,2013-05-07 13:11:00,
2013-05-07 09:22:00,61.0,53.0,29.93,West,272,1.0,4.0,75,0.00,,,0.00,,2013-05-07 13:22:00,
2013-05-07 09:32:00,62.0,52.0,29.93,WNW,284,1.0,6.0,71,0.00,,,0.00,,2013-05-07 13:32:00,
2013-05-07 09:42:00,62.0,52.0,29.93,WNW,284,1.0,6.0,71,0.00,,,0.00,,2013-05-07 13:42:00,
2013-05-07 09:52:00,63.0,52.0,29.93,West,272,3.0,5.0,67,0.00,,,0.00,,2013-05-07 13:52:00,
2013-05-07 10:02:00,64.0,53.0,29.93,West,271,1.0,6.0,68,0.00,,,0.00,,2013-05-07 14:02:00,
2013-05-07 10:11:00,64.0,53.0,29.93,West,271,1.0,6.0,68,0.00,,,0.00,,2013-05-07 14:11:00,
2013-05-07 10:21:00,65.0,53.0,29.93,South,178,1.0,5.0,64,0.00,,,0.00,,2013-05-07 14:21:00,
2013-05-07 10:32:00,65.0,54.0,29.93,SSE,156,2.0,5.0,68,0.00,,,0.00,,2013-05-07 14:32:00,
2013-05-07 10:42:00,65.0,54.0,29.93,SSE,156,2.0,5.0,68,0.00,,,0.00,,2013-05-07 14:42:00,
2013-05-07 10:52:00,65.0,53.0,29.93,SSE,163,2.0,5.0,66,0.00,,,0.00,,2013-05-07 14:52:00,
2013-05-07 11:01:00,65.0,54.0,29.93,SSE,148,3.0,7.0,68,0.00,,,0.00,,2013-05-07 15:01:00,
2013-05-07 11:12:00,65.0,54.0,29.93,SSE,148,3.0,7.0,68,0.00,,,0.00,,2013-05-07 15:12:00,
2013-05-07 11:21:00,66.0,56.0,29.94,SSE,151,2.0,8.0,69,0.00,,,0.00,,2013-05-07 15:21:00,
2013-05-07 11:33:00,66.0,55.0,29.94,SE,142,4.0,9.0,68,0.00,,,0.00,,2013-05-07 15:33:00,
2013-05-07 11:42:00,66.0,55.0,29.94,SE,142,4.0,9.0,68,0.00,,,0.00,,2013-05-07 15:42:00,
2013-05-07 11:53:00,66.0,55.0,29.94,SE,142,4.0,9.0,68,0.00,,,0.00,,2013-05-07 15:53:00,
2013-05-07 12:03:00,65.0,54.0,29.95,SE,138,3.0,7.0,68,0.00,,,0.00,,2013-05-07 16:03:00,
2013-05-07 12:12:00,65.0,54.0,29.95,SE,138,3.0,7.0,68,0.00,,,0.00,,2013-05-07 16:12:00,
2013-05-07 12:22:00,65.0,54.0,29.94,SSE,148,5.0,8.0,67,0.00,,,0.00,,2013-05-07 16:22:00,
2013-05-07 12:32:00,65.0,54.0,29.94,SSE,166,3.0,6.0,68,0.00,,,0.00,,2013-05-07 16:32:00,
2013-05-07 12:41:00,65.0,54.0,29.94,SSE,166,3.0,6.0,68,0.00,,,0.00,,2013-05-07 16:41:00,
2013-05-07 12:51:00,65.0,54.0,29.94,SSE,166,3.0,6.0,68,0.00,,,0.00,,2013-05-07 16:51:00,
2013-05-07 13:01:00,63.0,55.0,29.94,South,176,6.0,20.0,76,0.00,,,0.00,,2013-05-07 17:01:00,
2013-05-07 13:12:00,63.0,55.0,29.94,South,176,6.0,20.0,76,0.00,,,0.00,,2013-05-07 17:12:00,
2013-05-07 13:21:00,62.0,57.0,29.94,SSE,147,3.0,14.0,83,0.00,,,0.00,,2013-05-07 17:21:00,
2013-05-07 13:32:00,62.0,57.0,29.93,SE,142,4.0,9.0,83,0.00,,,0.00,,2013-05-07 17:32:00,
2013-05-07 13:41:00,62.0,57.0,29.93,SE,142,4.0,9.0,83,0.00,,,0.00,,2013-05-07 17:41:00,
2013-05-07 13:52:00,62.0,57.0,29.93,SE,142,4.0,9.0,83,0.00,,,0.00,,2013-05-07 17:52:00,
2013-05-07 14:01:00,63.0,57.0,29.92,South,180,4.0,10.0,80,0.00,,,0.00,,2013-05-07 18:01:00,
2013-05-07 14:11:00,63.0,57.0,29.92,South,180,4.0,10.0,80,0.00,,,0.00,,2013-05-07 18:11:00,
2013-05-07 14:21:00,63.0,56.0,29.91,SSE,160,4.0,9.0,78,0.00,,,0.00,,2013-05-07 18:21:00,
2013-05-07 14:31:00,64.0,56.0,29.91,SSE,160,6.0,10.0,76,0.00,,,0.00,,2013-05-07 18:31:00,
2013-05-07 14:42:00,64.0,56.0,29.91,SSE,160,6.0,10.0,76,0.00,,,0.00,,2013-05-07 18:42:00,
2013-05-07 14:51:00,65.0,56.0,29.91,SSE,154,5.0,12.0,72,0.00,,,0.00,,2013-05-07 18:51:00,
2013-05-07 15:02:00,65.0,56.0,29.91,South,172,5.0,11.0,72,0.00,,,0.00,,2013-05-07 19:02:00,
2013-05-07 15:11:00,65.0,56.0,29.91,South,172,5.0,11.0,72,0.00,,,0.00,,2013-05-07 19:11:00,
2013-05-07 15:21:00,64.0,55.0,29.90,SSE,161,8.0,15.0,73,0.00,,,0.00,,2013-05-07 19:21:00,
2013-05-07 15:32:00,64.0,56.0,29.90,SSE,164,9.0,14.0,74,0.00,,,0.00,,2013-05-07 19:32:00,
2013-05-07 15:42:00,64.0,56.0,29.90,SSE,164,9.0,14.0,74,0.00,,,0.00,,2013-05-07 19:42:00,
2013-05-07 15:52:00,65.0,57.0,29.89,SE,127,3.0,15.0,76,0.00,,,0.00,,2013-05-07 19:52:00,
2013-05-07 16:02:00,65.0,57.0,29.89,SSE,155,6.0,12.0,76,0.00,,,0.00,,2013-05-07 20:02:00,
2013-05-07 16:12:00,65.0,57.0,29.89,SSE,155,6.0,12.0,76,0.00,,,0.00,,2013-05-07 20:12:00,
2013-05-07 16:22:00,65.0,57.0,29.89,SSE,153,6.0,11.0,75,0.00,,,0.00,,2013-05-07 20:22:00,
2013-05-07 16:32:00,64.0,57.0,29.89,SSE,147,7.0,11.0,78,0.00,,,0.00,,2013-05-07 20:32:00,
2013-05-07 16:42:00,64.0,57.0,29.89,SSE,147,7.0,11.0,78,0.00,,,0.00,,2013-05-07 20:42:00,
2013-05-07 16:51:00,64.0,57.0,29.89,South,189,5.0,12.0,78,0.00,,,0.00,,2013-05-07 20:51:00,
2013-05-07 17:02:00,65.0,58.0,29.89,SE,140,2.0,8.0,78,0.00,,,0.00,,2013-05-07 21:02:00,
2013-05-07 17:11:00,65.0,58.0,29.89,SE,140,2.0,8.0,78,0.00,,,0.00,,2013-05-07 21:11:00,
2013-05-07 17:22:00,63.0,55.0,29.90,West,268,6.0,15.0,76,0.01,,,0.01,,2013-05-07 21:22:00,
2013-05-07 17:33:00,60.0,55.0,29.90,West,259,1.0,5.0,85,0.14,,,0.14,,2013-05-07 21:33:00,
2013-05-07 17:42:00,60.0,55.0,29.90,West,259,1.0,5.0,85,0.14,,,0.14,,2013-05-07 21:42:00,
2013-05-07 17:52:00,59.0,55.0,29.89,South,171,0.0,3.0,88,0.16,,,0.16,,2013-05-07 21:52:00,
2013-05-07 18:02:00,60.0,56.0,29.89,SSE,151,1.0,4.0,87,0.16,,,0.16,,2013-05-07 22:02:00,
2013-05-07 18:13:00,60.0,56.0,29.89,SSE,151,1.0,4.0,87,0.16,,,0.16,,2013-05-07 22:13:00,
2013-05-07 18:22:00,61.0,56.0,29.89,SSE,149,3.0,7.0,85,0.15,,,0.16,,2013-05-07 22:22:00,
2013-05-07 18:33:00,62.0,56.0,29.89,SE,143,3.0,9.0,81,0.02,,,0.16,,2013-05-07 22:33:00,
2013-05-07 18:42:00,62.0,56.0,29.89,SSW,207,4.0,13.0,82,0.00,,,0.16,,2013-05-07 22:42:00,
2013-05-07 18:52:00,62.0,56.0,29.89,SSW,207,4.0,13.0,82,0.00,,,0.16,,2013-05-07 22:52:00,
2013-05-07 19:02:00,63.0,58.0,29.89,WSW,238,4.0,11.0,83,0.00,,,0.16,,2013-05-07 23:02:00,
2013-05-07 19:12:00,63.0,58.0,29.89,WSW,238,4.0,11.0,83,0.00,,,0.16,,2013-05-07 23:12:00,
2013-05-07 19:21:00,63.0,58.0,29.90,South,190,4.0,10.0,83,0.00,,,0.16,,2013-05-07 23:21:00,
2013-05-07 19:32:00,64.0,59.0,29.90,South,182,5.0,8.0,83,0.00,,,0.16,,2013-05-07 23:32:00,
2013-05-07 19:42:00,64.0,59.0,29.90,SSE,167,3.0,9.0,85,0.00,,,0.16,,2013-05-07 23:42:00,
2013-05-07 19:52:00,64.0,59.0,29.90,SSE,167,3.0,9.0,85,0.00,,,0.16,,2013-05-07 23:52:00,
2013-05-07 20:02:00,64.0,60.0,29.91,South,190,3.0,8.0,86,0.00,,,0.16,,2013-05-08 00:02:00,
2013-05-07 20:12:00,64.0,60.0,29.91,South,190,3.0,8.0,86,0.00,,,0.16,,2013-05-08 00:12:00,
2013-05-07 20:22:00,63.0,59.0,29.91,South,188,2.0,8.0,86,0.00,,,0.16,,2013-05-08 00:22:00,
2013-05-07 20:32:00,63.0,59.0,29.92,WSW,251,3.0,9.0,86,0.00,,,0.16,,2013-05-08 00:32:00,
2013-05-07 20:42:00,63.0,59.0,29.92,SSW,200,2.0,7.0,86,0.00,,,0.16,,2013-05-08 00:42:00,
2013-05-07 20:51:00,63.0,59.0,29.92,SSW,200,2.0,7.0,86,0.00,,,0.16,,2013-05-08 00:51:00,
2013-05-07 21:02:00,63.0,59.0,29.91,South,182,1.0,7.0,86,0.00,,,0.16,,2013-05-08 01:02:00,
2013-05-07 21:11:00,63.0,59.0,29.91,South,182,1.0,7.0,86,0.00,,,0.16,,2013-05-08 01:11:00,
2013-05-07 21:22:00,63.0,59.0,29.91,West,265,2.0,6.0,87,0.00,,,0.16,,2013-05-08 01:22:00,
2013-05-07 21:32:00,62.0,58.0,29.92,SW,236,0.0,5.0,87,0.00,,,0.16,,2013-05-08 01:32:00,
2013-05-07 21:42:00,62.0,59.0,29.92,SW,229,2.0,5.0,89,0.00,,,0.16,,2013-05-08 01:42:00,
2013-05-07 21:52:00,62.0,59.0,29.92,SW,229,2.0,5.0,89,0.00,,,0.16,,2013-05-08 01:52:00,
2013-05-07 22:02:00,62.0,59.0,29.92,SSE,167,1.0,4.0,89,0.00,,,0.16,,2013-05-08 02:02:00,
2013-05-07 22:12:00,62.0,59.0,29.92,SSE,167,1.0,4.0,89,0.00,,,0.16,,2013-05-08 02:12:00,
2013-05-07 22:22:00,62.0,59.0,29.93,SW,223,0.0,5.0,89,0.00,,,0.16,,2013-05-08 02:22:00,
2013-05-07 22:32:00,61.0,58.0,29.93,WSW,238,0.0,4.0,90,0.00,,,0.16,,2013-05-08 02:32:00,
2013-05-07 22:42:00,61.0,58.0,29.93,SW,236,0.0,4.0,90,0.00,,,0.16,,2013-05-08 02:42:00,
2013-05-07 22:52:00,61.0,58.0,29.93,SW,236,0.0,4.0,90,0.00,,,0.16,,2013-05-08 02:52:00,
2013-05-07 23:02:00,61.0,58.0,29.94,SW,236,0.0,4.0,90,0.00,,,0.16,,2013-05-08 03:02:00,
2013-05-07 23:11:00,61.0,58.0,29.94,SW,236,0.0,4.0,90,0.00,,,0.16,,2013-05-08 03:11:00,
2013-05-07 23:21:00,61.0,58.0,29.94,SW,221,0.0,3.0,90,0.00,,,0.16,,2013-05-08 03:21:00,
2013-05-07 23:33:00,60.0,57.0,29.94,SW,217,0.0,2.0,90,0.00,,,0.16,,2013-05-08 03:33:00,
2013-05-07 23:43:00,60.0,57.0,29.94,SW,217,0.0,2.0,90,0.00,,,0.16,,2013-05-08 03:43:00,
2013-05-07 23:52:00,60.0,57.0,29.94,SW,223,0.0,3.0,90,0.00,,,0.16,,2013-05-08 03:52:00,